Hlavní strana
METAR-TAF:

METAR-TAF

Letiště :

Suffolk Executive Airport

Suffolk, Virginie, Spojené státy americké

zeměpisná šířka: 36-40-56N, zeměpisná délka: 076-36-07W, výška: 22 m

Aktuální stav počasí

Zpráva byla vytvořena před 28 minutami, v 15:35 UTC
Severovýchodní vítr 8 kt, proměnlivý mezi severním a východoseverovýchodním
Teplota 28°C
Vlhkost vzduchu 66%
Tlak 1013 hPa
Viditelnost: 16.1 km
Jasno

METAR: KSFQ 021535Z AUTO 04008KT 360V060 10SM CLR 28/21 A2991 RMK AO2 T02820209

Čas: 12:03 (16:03 UTC)


TAF: chybějící

Stav a předpovědi počasí z více než 4 000 letišť (zprávy METAR a TAF).

Červené a žluté tečky na mapě představují dostupné meteorologické stanice.

Když kurzor umístíte na tečku, zobrazí se název stanice.

Pak kliknutím zobrazíte stav a předpověď počasí.

Chcete-li změnit mapu, kliknutím na zelené tlačítko se znaménkem +mapu přiblížíte, kliknutím na zelené tlačítko se znaménkem – mapu oddálíte a kliknutím na zelené šipky přejdete na sousední mapy.


METAR-TAF: